BZN600 KLBB-KTUS

Flight info

Callsign BZN600
Flight time 1h 22m
Altitude 30000
Route LBB ELP ZONNA2
Aircraft B738/M-SDE2E3FGHIRWXY/LB1

Departure

Time 2026-04-23 23:37
Airport Lubbock Preston Smith International Airport (KLBB)

Arrival

Time 2026-04-24 00:59
Airport Tucson International Airport (KTUS)
Time Latitude Longitude Altitude Speed Heading
2026-04-23 23:11 33.65642 -101.82344 3262 ft 0 kts 146°
2026-04-23 23:22 33.65651 -101.82351 3259 ft 2 kts 146°
2026-04-23 23:22 33.65664 -101.82362 3259 ft 2 kts 146°
2026-04-23 23:22 33.65678 -101.82373 3260 ft 2 kts 147°
2026-04-23 23:23 33.65692 -101.82382 3259 ft 2 kts 171°
2026-04-23 23:23 33.65707 -101.82381 3261 ft 1 kts 226°
2026-04-23 23:23 33.65712 -101.82373 3260 ft 1 kts 242°
2026-04-23 23:23 33.65713 -101.82371 3260 ft 0 kts 243°
2026-04-23 23:29 33.65709 -101.82387 3260 ft 10 kts 256°
2026-04-23 23:29 33.65746 -101.82503 3260 ft 20 kts 297°
2026-04-23 23:29 33.65785 -101.82666 3258 ft 18 kts 309°
2026-04-23 23:30 33.65905 -101.82692 3257 ft 18 kts
2026-04-23 23:30 33.66023 -101.82674 3259 ft 11 kts 41°
2026-04-23 23:30 33.66031 -101.82578 3261 ft 23 kts 90°
2026-04-23 23:30 33.66031 -101.82333 3266 ft 31 kts 89°
2026-04-23 23:31 33.66032 -101.82249 3267 ft 30 kts 89°
2026-04-23 23:31 33.66035 -101.82010 3270 ft 28 kts 90°
2026-04-23 23:31 33.66035 -101.81782 3268 ft 26 kts 90°
2026-04-23 23:32 33.66035 -101.81640 3266 ft 25 kts 90°
2026-04-23 23:32 33.66036 -101.81434 3264 ft 23 kts 90°
2026-04-23 23:32 33.66036 -101.81245 3261 ft 23 kts 90°
2026-04-23 23:32 33.66038 -101.81059 3258 ft 22 kts 86°
2026-04-23 23:33 33.66042 -101.80870 3259 ft 23 kts 91°
2026-04-23 23:33 33.66038 -101.80684 3262 ft 22 kts 90°
2026-04-23 23:33 33.66039 -101.80501 3264 ft 21 kts 89°
2026-04-23 23:33 33.66040 -101.80290 3263 ft 28 kts 90°
2026-04-23 23:34 33.66041 -101.80064 3267 ft 26 kts 89°
2026-04-23 23:34 33.66042 -101.79854 3264 ft 24 kts 90°
2026-04-23 23:34 33.66055 -101.79709 3262 ft 13 kts 52°
2026-04-23 23:34 33.66136 -101.79683 3263 ft 6 kts
2026-04-23 23:35 33.66169 -101.79679 3262 ft 5 kts
2026-04-23 23:35 33.66200 -101.79675 3262 ft 5 kts
2026-04-23 23:35 33.66240 -101.79713 3262 ft 13 kts 287°
2026-04-23 23:35 33.66238 -101.79753 3263 ft 0 kts 266°
2026-04-23 23:36 33.66233 -101.80000 3265 ft 68 kts 269°
2026-04-23 23:36 33.66229 -101.80873 3261 ft 139 kts 270°
2026-04-23 23:36 33.66232 -101.82197 3663 ft 164 kts 269°
2026-04-23 23:37 33.66255 -101.83552 4577 ft 156 kts 272°
2026-04-23 23:37 33.66741 -101.84717 5304 ft 169 kts 322°
2026-04-23 23:37 33.67738 -101.85634 5600 ft 195 kts 300°
2026-04-23 23:37 33.68416 -101.87120 5878 ft 216 kts 296°
2026-04-23 23:38 33.69190 -101.88744 6054 ft 238 kts 297°
2026-04-23 23:38 33.69973 -101.90589 6401 ft 249 kts 283°
2026-04-23 23:38 33.69959 -101.92611 6987 ft 248 kts 254°
2026-04-23 23:38 33.69326 -101.94536 7682 ft 247 kts 245°
2026-04-23 23:39 33.68564 -101.96422 8163 ft 262 kts 244°
2026-04-23 23:39 33.67729 -101.98424 8760 ft 271 kts 243°
2026-04-23 23:39 33.66877 -102.00461 9508 ft 276 kts 244°
2026-04-23 23:39 33.66021 -102.02520 10298 ft 278 kts 244°
2026-04-23 23:40 33.65126 -102.04679 10571 ft 301 kts 244°
2026-04-23 23:40 33.64161 -102.07019 10747 ft 325 kts 244°
2026-04-23 23:40 33.63139 -102.09503 11183 ft 337 kts 244°
2026-04-23 23:40 33.62096 -102.12042 11878 ft 341 kts 244°
2026-04-23 23:41 33.61046 -102.14601 12666 ft 343 kts 244°
2026-04-23 23:41 33.59988 -102.17180 13439 ft 345 kts 244°
2026-04-23 23:41 33.58923 -102.19777 14164 ft 347 kts 245°
2026-04-23 23:41 33.57859 -102.22372 14940 ft 346 kts 245°
2026-04-23 23:42 33.56797 -102.24962 15702 ft 347 kts 245°
2026-04-23 23:42 33.55744 -102.27526 16432 ft 348 kts 245°
2026-04-23 23:42 33.54675 -102.30131 17149 ft 349 kts 245°
2026-04-23 23:42 33.53598 -102.32751 17854 ft 350 kts 246°
2026-04-23 23:43 33.52519 -102.35377 18472 ft 352 kts 246°
2026-04-23 23:43 33.51433 -102.38016 19002 ft 356 kts 246°
2026-04-23 23:43 33.50333 -102.40687 19570 ft 358 kts 246°
2026-04-23 23:43 33.49228 -102.43369 20139 ft 360 kts 246°
2026-04-23 23:44 33.48112 -102.46074 20688 ft 363 kts 246°
2026-04-23 23:44 33.46993 -102.48787 21199 ft 366 kts 246°
2026-04-23 23:44 33.45853 -102.51546 21714 ft 368 kts 246°
2026-04-23 23:44 33.44716 -102.54296 22219 ft 371 kts 246°
2026-04-23 23:45 33.43566 -102.57076 22712 ft 374 kts 246°
2026-04-23 23:45 33.42404 -102.59882 23213 ft 376 kts 246°
2026-04-23 23:45 33.41241 -102.62687 23598 ft 379 kts 246°
2026-04-23 23:45 33.40065 -102.65523 24037 ft 379 kts 246°
2026-04-23 23:46 33.38890 -102.68353 24482 ft 380 kts 246°
2026-04-23 23:46 33.37726 -102.71154 24889 ft 381 kts 246°
2026-04-23 23:46 33.36542 -102.74000 25316 ft 382 kts 246°
2026-04-23 23:46 33.35362 -102.76836 25728 ft 383 kts 246°
2026-04-23 23:47 33.34170 -102.79697 26128 ft 385 kts 246°
2026-04-23 23:47 33.32974 -102.82567 26520 ft 386 kts 246°
2026-04-23 23:47 33.31773 -102.85446 26942 ft 386 kts 246°
2026-04-23 23:47 33.30578 -102.88305 27512 ft 382 kts 246°
2026-04-23 23:48 33.29390 -102.91146 28154 ft 377 kts 247°
2026-04-23 23:48 33.28220 -102.93940 28756 ft 374 kts 247°
2026-04-23 23:48 33.27059 -102.96712 29212 ft 374 kts 247°
2026-04-23 23:48 33.25893 -102.99497 29609 ft 375 kts 247°
2026-04-23 23:49 33.23533 -103.05135 29623 ft 388 kts 246°
2026-04-23 23:49 33.21082 -103.10978 29637 ft 399 kts 246°
2026-04-23 23:50 33.18562 -103.16968 29629 ft 408 kts 246°
2026-04-23 23:50 33.15983 -103.23084 29621 ft 414 kts 246°
2026-04-23 23:51 33.13382 -103.29238 29617 ft 415 kts 246°
2026-04-23 23:51 33.10779 -103.35387 29626 ft 415 kts 246°
2026-04-23 23:52 33.08176 -103.41528 29622 ft 415 kts 246°
2026-04-23 23:52 33.05571 -103.47666 29622 ft 414 kts 246°
2026-04-23 23:53 33.02981 -103.53757 29623 ft 414 kts 246°
2026-04-23 23:53 33.00380 -103.59863 29622 ft 413 kts 246°
2026-04-23 23:54 32.97779 -103.65958 29626 ft 412 kts 246°
2026-04-23 23:54 32.95181 -103.72037 29626 ft 411 kts 246°
2026-04-23 23:55 32.92585 -103.78100 29619 ft 411 kts 246°
2026-04-23 23:55 32.89991 -103.84149 29624 ft 410 kts 245°
2026-04-23 23:56 32.87391 -103.90200 29627 ft 411 kts 245°
2026-04-23 23:56 32.84786 -103.96253 29624 ft 411 kts 245°
2026-04-23 23:57 32.82195 -104.02265 29629 ft 411 kts 245°
2026-04-23 23:57 32.79579 -104.08323 29649 ft 412 kts 245°
2026-04-23 23:58 32.76958 -104.14382 29681 ft 412 kts 245°
2026-04-23 23:58 32.74332 -104.20443 29707 ft 413 kts 245°
2026-04-23 23:59 32.71692 -104.26526 29732 ft 415 kts 245°
2026-04-23 23:59 32.69043 -104.32620 29738 ft 416 kts 245°
2026-04-24 00:00 32.66382 -104.38728 29741 ft 417 kts 245°
2026-04-24 00:00 32.63724 -104.44821 29735 ft 418 kts 245°
2026-04-24 00:01 32.61047 -104.50947 29722 ft 419 kts 245°
2026-04-24 00:01 32.58360 -104.57086 29704 ft 419 kts 245°
2026-04-24 00:02 32.55669 -104.63223 29679 ft 421 kts 245°
2026-04-24 00:02 32.52963 -104.69383 29668 ft 421 kts 245°
2026-04-24 00:03 32.50255 -104.75536 29681 ft 421 kts 245°
2026-04-24 00:03 32.47544 -104.81687 29689 ft 421 kts 246°
2026-04-24 00:04 32.44830 -104.87835 29694 ft 421 kts 246°
2026-04-24 00:04 32.42124 -104.93952 29711 ft 421 kts 246°
2026-04-24 00:05 32.39401 -105.00100 29707 ft 422 kts 246°
2026-04-24 00:05 32.36673 -105.06247 29728 ft 422 kts 246°
2026-04-24 00:06 32.33945 -105.12384 29719 ft 421 kts 246°
2026-04-24 00:06 32.31219 -105.18506 29726 ft 420 kts 246°
2026-04-24 00:07 32.28502 -105.24596 29717 ft 419 kts 246°
2026-04-24 00:07 32.25784 -105.30682 29721 ft 417 kts 245°
2026-04-24 00:08 32.23078 -105.36729 29719 ft 416 kts 245°
2026-04-24 00:08 32.20373 -105.42762 29728 ft 414 kts 245°
2026-04-24 00:09 32.17676 -105.48768 29716 ft 413 kts 245°
2026-04-24 00:09 32.15005 -105.54707 29728 ft 411 kts 245°
2026-04-24 00:10 32.12325 -105.60658 29729 ft 410 kts 245°
2026-04-24 00:10 32.09646 -105.66596 29732 ft 409 kts 245°
2026-04-24 00:11 32.06973 -105.72510 29754 ft 408 kts 245°
2026-04-24 00:11 32.04299 -105.78419 29739 ft 407 kts 245°
2026-04-24 00:12 32.01628 -105.84311 29747 ft 407 kts 245°
2026-04-24 00:12 31.98972 -105.90161 29733 ft 409 kts 245°
2026-04-24 00:13 31.96283 -105.96074 29734 ft 410 kts 245°
2026-04-24 00:13 31.93586 -106.01995 29757 ft 410 kts 245°
2026-04-24 00:14 31.90880 -106.07925 29791 ft 410 kts 245°
2026-04-24 00:14 31.88177 -106.13843 29826 ft 410 kts 245°
2026-04-24 00:15 31.85468 -106.19763 29865 ft 411 kts 245°
2026-04-24 00:15 31.83132 -106.25832 29899 ft 406 kts 256°
2026-04-24 00:16 31.82270 -106.32346 29900 ft 407 kts 267°
2026-04-24 00:16 31.82800 -106.38985 29916 ft 409 kts 276°
2026-04-24 00:17 31.83621 -106.45604 29916 ft 409 kts 276°
2026-04-24 00:17 31.84447 -106.52193 29926 ft 406 kts 276°
2026-04-24 00:18 31.85224 -106.58793 29929 ft 408 kts 275°
2026-04-24 00:18 31.85858 -106.64283 29933 ft 408 kts 275°
2026-04-24 00:19 31.86622 -106.70899 29948 ft 408 kts 275°
2026-04-24 00:19 31.87385 -106.77507 29938 ft 408 kts 275°
2026-04-24 00:20 31.88148 -106.84133 29922 ft 408 kts 275°
2026-04-24 00:20 31.88901 -106.90701 29878 ft 407 kts 275°
2026-04-24 00:21 31.89656 -106.97312 29843 ft 407 kts 275°
2026-04-24 00:21 31.90407 -107.03930 29802 ft 407 kts 275°
2026-04-24 00:22 31.91155 -107.10542 29773 ft 407 kts 275°
2026-04-24 00:22 31.91894 -107.17116 29754 ft 407 kts 275°
2026-04-24 00:23 31.92634 -107.23723 29763 ft 407 kts 275°
2026-04-24 00:23 31.93373 -107.30351 29765 ft 408 kts 275°
2026-04-24 00:24 31.94106 -107.36968 29772 ft 408 kts 275°
2026-04-24 00:24 31.94838 -107.43595 29778 ft 407 kts 275°
2026-04-24 00:25 31.95560 -107.50167 29776 ft 407 kts 275°
2026-04-24 00:25 31.96282 -107.56775 29804 ft 407 kts 275°
2026-04-24 00:26 31.97001 -107.63392 29826 ft 407 kts 275°
2026-04-24 00:26 31.97718 -107.70014 29845 ft 408 kts 275°
2026-04-24 00:27 31.98432 -107.76644 29834 ft 408 kts 275°
2026-04-24 00:27 31.99137 -107.83223 29834 ft 408 kts 275°
2026-04-24 00:28 31.99844 -107.89856 29828 ft 408 kts 275°
2026-04-24 00:28 32.00548 -107.96491 29819 ft 408 kts 275°
2026-04-24 00:29 32.01248 -108.03123 29807 ft 407 kts 275°
2026-04-24 00:29 32.01942 -108.09738 29804 ft 407 kts 275°
2026-04-24 00:30 32.02634 -108.16357 29805 ft 407 kts 275°
2026-04-24 00:30 32.03322 -108.22979 29808 ft 407 kts 275°
2026-04-24 00:31 32.04007 -108.29606 29817 ft 408 kts 275°
2026-04-24 00:31 32.04692 -108.36263 29811 ft 408 kts 275°
2026-04-24 00:32 32.05368 -108.42870 29816 ft 408 kts 275°
2026-04-24 00:32 32.06045 -108.49525 29842 ft 408 kts 275°
2026-04-24 00:33 32.06718 -108.56174 29865 ft 409 kts 275°
2026-04-24 00:33 32.07390 -108.62844 29874 ft 410 kts 275°
2026-04-24 00:34 32.08059 -108.69519 29895 ft 410 kts 275°
2026-04-24 00:34 32.08723 -108.76187 29893 ft 411 kts 275°
2026-04-24 00:35 32.09388 -108.82900 29878 ft 412 kts 275°
2026-04-24 00:35 32.10051 -108.89620 29859 ft 412 kts 275°
2026-04-24 00:36 32.10709 -108.96340 29847 ft 413 kts 275°
2026-04-24 00:36 32.11362 -109.03032 29808 ft 400 kts 275°
2026-04-24 00:37 32.11675 -109.06227 29807 ft 382 kts 275°
2026-04-24 00:37 32.11971 -109.09269 29808 ft 365 kts 275°
2026-04-24 00:37 32.12252 -109.12182 29810 ft 350 kts 274°
2026-04-24 00:37 32.12524 -109.15016 29552 ft 348 kts 274°
2026-04-24 00:38 32.12789 -109.17782 29212 ft 341 kts 274°
2026-04-24 00:38 32.13056 -109.20570 28848 ft 336 kts 274°
2026-04-24 00:38 32.13313 -109.23258 28422 ft 332 kts 274°
2026-04-24 00:38 32.13576 -109.25957 27983 ft 330 kts 275°
2026-04-24 00:39 32.13965 -109.28612 27531 ft 328 kts 278°
2026-04-24 00:39 32.14420 -109.31241 27088 ft 326 kts 279°
2026-04-24 00:39 32.14888 -109.33860 26683 ft 325 kts 279°
2026-04-24 00:39 32.15353 -109.36468 26263 ft 324 kts 279°
2026-04-24 00:40 32.15813 -109.39070 25856 ft 323 kts 279°
2026-04-24 00:40 32.16266 -109.41661 25447 ft 323 kts 278°
2026-04-24 00:40 32.16718 -109.44261 25041 ft 322 kts 278°
2026-04-24 00:40 32.17166 -109.46854 24630 ft 323 kts 278°
2026-04-24 00:41 32.17614 -109.49451 24215 ft 322 kts 278°
2026-04-24 00:41 32.18054 -109.52010 23818 ft 321 kts 278°
2026-04-24 00:41 32.18499 -109.54594 23410 ft 320 kts 278°
2026-04-24 00:41 32.18942 -109.57184 22917 ft 321 kts 279°
2026-04-24 00:42 32.19383 -109.59758 22502 ft 320 kts 279°
2026-04-24 00:42 32.19819 -109.62308 22087 ft 318 kts 279°
2026-04-24 00:42 32.20260 -109.64888 21682 ft 317 kts 279°
2026-04-24 00:42 32.20691 -109.67435 21282 ft 316 kts 278°
2026-04-24 00:43 32.20865 -109.70010 20889 ft 313 kts 269°
2026-04-24 00:43 32.20719 -109.72564 20540 ft 311 kts 262°
2026-04-24 00:43 32.20250 -109.75068 20210 ft 315 kts 257°
2026-04-24 00:43 32.19671 -109.77606 19867 ft 323 kts 256°
2026-04-24 00:44 32.19064 -109.80177 19510 ft 327 kts 256°
2026-04-24 00:44 32.18454 -109.82751 19140 ft 326 kts 256°
2026-04-24 00:44 32.17847 -109.85323 18785 ft 324 kts 256°
2026-04-24 00:44 32.17244 -109.87900 18430 ft 324 kts 257°
2026-04-24 00:45 32.16654 -109.90429 18051 ft 323 kts 257°
2026-04-24 00:45 32.16062 -109.92974 17640 ft 320 kts 257°
2026-04-24 00:45 32.15478 -109.95485 17276 ft 316 kts 257°
2026-04-24 00:45 32.14899 -109.97978 16924 ft 313 kts 256°
2026-04-24 00:46 32.14325 -110.00452 16577 ft 311 kts 256°
2026-04-24 00:46 32.13757 -110.02898 16235 ft 309 kts 256°
2026-04-24 00:46 32.13189 -110.05339 15897 ft 307 kts 256°
2026-04-24 00:46 32.12628 -110.07752 15543 ft 305 kts 256°
2026-04-24 00:47 32.12066 -110.10165 15225 ft 304 kts 256°
2026-04-24 00:47 32.11508 -110.12557 14901 ft 303 kts 256°
2026-04-24 00:47 32.10948 -110.14958 14560 ft 302 kts 256°
2026-04-24 00:47 32.10393 -110.17336 14299 ft 299 kts 256°
2026-04-24 00:48 32.09839 -110.19704 13989 ft 298 kts 256°
2026-04-24 00:48 32.09291 -110.22047 13665 ft 297 kts 256°
2026-04-24 00:48 32.08743 -110.24389 13317 ft 296 kts 256°
2026-04-24 00:48 32.08196 -110.26727 12972 ft 295 kts 256°
2026-04-24 00:49 32.07649 -110.29058 12632 ft 294 kts 256°
2026-04-24 00:49 32.07111 -110.31349 12305 ft 291 kts 256°
2026-04-24 00:49 32.06566 -110.33665 12053 ft 286 kts 256°
2026-04-24 00:49 32.06050 -110.35920 11675 ft 285 kts 256°
2026-04-24 00:50 32.05547 -110.38163 11384 ft 281 kts 256°
2026-04-24 00:50 32.05057 -110.40349 11085 ft 279 kts 256°
2026-04-24 00:50 32.04562 -110.42555 10789 ft 277 kts 256°
2026-04-24 00:50 32.04071 -110.44741 10502 ft 274 kts 256°
2026-04-24 00:51 32.03583 -110.46908 10216 ft 272 kts 256°
2026-04-24 00:51 32.03098 -110.49060 9939 ft 270 kts 255°
2026-04-24 00:51 32.02623 -110.51162 9665 ft 268 kts 255°
2026-04-24 00:51 32.02146 -110.53270 9364 ft 266 kts 256°
2026-04-24 00:52 32.01669 -110.55374 9052 ft 265 kts 256°
2026-04-24 00:52 32.01193 -110.57475 8764 ft 263 kts 256°
2026-04-24 00:52 32.00728 -110.59526 8464 ft 255 kts 256°
2026-04-24 00:52 32.00274 -110.61526 8193 ft 251 kts 256°
2026-04-24 00:53 31.99819 -110.63529 7955 ft 261 kts 255°
2026-04-24 00:53 31.99344 -110.65617 7724 ft 268 kts 256°
2026-04-24 00:53 31.98870 -110.67697 7695 ft 262 kts 256°
2026-04-24 00:53 31.98395 -110.69784 7188 ft 265 kts 256°
2026-04-24 00:54 31.97918 -110.71872 6848 ft 262 kts 256°
2026-04-24 00:54 31.97453 -110.73911 6573 ft 253 kts 257°
2026-04-24 00:54 31.97364 -110.75947 6311 ft 242 kts 282°
2026-04-24 00:54 31.97923 -110.77693 6018 ft 224 kts 300°
2026-04-24 00:55 31.98851 -110.79054 5828 ft 202 kts 313°
2026-04-24 00:55 31.99792 -110.80144 5796 ft 180 kts 313°
2026-04-24 00:55 32.00656 -110.81134 5675 ft 165 kts 313°
2026-04-24 00:55 32.01423 -110.82018 5608 ft 144 kts 313°
2026-04-24 00:56 32.02162 -110.82878 5208 ft 153 kts 312°
2026-04-24 00:56 32.02923 -110.83767 4865 ft 154 kts 312°
2026-04-24 00:56 32.03669 -110.84635 4647 ft 146 kts 313°
2026-04-24 00:56 32.04382 -110.85467 4420 ft 143 kts 314°
2026-04-24 00:57 32.05081 -110.86282 4271 ft 139 kts 312°
2026-04-24 00:57 32.05763 -110.87079 4085 ft 139 kts 311°
2026-04-24 00:57 32.07125 -110.88676 3675 ft 136 kts 311°
2026-04-24 00:58 32.07813 -110.89484 3448 ft 141 kts 314°
2026-04-24 00:58 32.08471 -110.90280 3302 ft 128 kts 315°
2026-04-24 00:58 32.09108 -110.91003 3089 ft 131 kts 312°
2026-04-24 00:58 32.09750 -110.91776 2848 ft 132 kts 313°
2026-04-24 00:59 32.10380 -110.92499 2659 ft 118 kts 314°
2026-04-24 00:59 32.10883 -110.93092 2626 ft 82 kts 315°
2026-04-24 00:59 32.11197 -110.93457 2619 ft 54 kts 316°
2026-04-24 00:59 32.11410 -110.93701 2611 ft 31 kts 315°
2026-04-24 01:00 32.11558 -110.93845 2605 ft 13 kts 326°
2026-04-24 01:00 32.11632 -110.93881 2602 ft 0 kts 353°
2026-04-24 01:01 32.11676 -110.93876 2600 ft 10 kts 19°
2026-04-24 01:01 32.11732 -110.93833 2599 ft 5 kts 48°
2026-04-24 01:01 32.11752 -110.93805 2599 ft 0 kts 48°
2026-04-24 01:01 32.11773 -110.93782 2596 ft 10 kts 29°
2026-04-24 01:02 32.11834 -110.93819 2596 ft 11 kts 319°
2026-04-24 01:02 32.11885 -110.93875 2597 ft 9 kts 313°
2026-04-24 01:02 32.11929 -110.93921 2589 ft 9 kts 344°
2026-04-24 01:02 32.11962 -110.93876 2597 ft 8 kts 83°
2026-04-24 01:03 32.11963 -110.93829 2598 ft 2 kts 94°
2026-04-24 01:03 32.11957 -110.93814 2596 ft 2 kts 119°
2026-04-24 01:03 32.11951 -110.93798 2599 ft 2 kts 113°